Regional Weather Roundup
Issued by NWS Austin/San Antonio, TX

Home | Current Version | Previous Version | Text Only | Print | Product List | Glossary On
Versions: 1 2 3 4 5 6 7 8 9 10 11 12 13 14 15 16 17 18 19 20 21 22 23 24 25 26 27 28 29 30 31 32 33 34 35 36 37 38 39 40 41 42 43 44 45 46 47 48 49 50
000
ASUS44 KEWX 260602
RWREWX
SOUTH TEXAS REGIONAL WEATHER ROUNDUP
NATIONAL WEATHER SERVICE AUSTIN/SAN ANTONIO TX
100 AM CDT FRI MAY 26 2017

NOTE: "FAIR" INDICATED FEW OR NO CLOUDS BELOW 12,000 FEET WITH NO
SIGNIFICANT WEATHER AND/OR OBSTRUCTIONS TO VISIBILITY.

* - THESE STATIONS ARE NOT NWS OR FAA STATIONS...AND ARE NOT SUBJECT
    TO NWS AND FAA QUALITY CONTROL.

TXZ171-172-183>190-260700-
TEXAS HILL COUNTRY AND EDWARDS PLATEAU

CITY           SKY/WX    TMP DP  RH WIND       PRES   REMARKS
JUNCTION       CLEAR     79  69  71 S6G16     29.76R
6HR MIN TEMP:  78; 6HR MAX TEMP:  93;

*LLANO         CLEAR     75  70  83 SE6       29.78S
BURNET         CLOUDY    75  69  81 S12G30    29.77S
6HR MIN TEMP:  75; 6HR MAX TEMP:  90;

*HORSESHOE BAY NOT AVBL
*KERRVILLE     CLOUDY    74  71  89 S15G21    29.81S
6HR MIN TEMP:  74; 6HR MAX TEMP:  92;

*FREDERICKSBRG MOCLDY    74  68  82 S10       29.79S
*ROCKSPRINGS   CLEAR     75  70  83 S17       29.83S
*BOERNE STAGE  CLOUDY    72  70  94 S9        29.82R
*CASTROVILLE   CLOUDY    77  71  81 SE8       29.80S
HONDO          CLOUDY    77  73  87 SE12      29.79R
6HR MIN TEMP:  77; 6HR MAX TEMP:  95;

*UVALDE        CLEAR     75  72  89 E7        29.78R
6HR MIN TEMP:  75; 6HR MAX TEMP:  94;

DEL RIO        CLEAR     79  67  66 E9        29.71F
6HR MIN TEMP:  79; 6HR MAX TEMP:  95;

LAUGHLIN AFB   CLEAR     76  69  78 SE10      29.73F
6HR MIN TEMP:  76; 6HR MAX TEMP:  96;

CARRIZO SPRGS  CLEAR     82  72  69 SE10      29.73R
*EAGLE PASS    NOT AVBL
$$

TXZ173-191>194-202-209-217>225-228-260700-
CENTRAL AND SOUTH CENTRAL TEXAS

CITY           SKY/WX    TMP DP  RH WIND       PRES   REMARKS
GEORGETOWN     CLOUDY    75  68  78 S16       29.75S
6HR MIN TEMP:  75; 6HR MAX TEMP:  91;

AUSTIN/BERGSTM CLOUDY    77  71  82 S16G24    29.77S
6HR MIN TEMP:  77; 6HR MAX TEMP:  91;

AUSTIN/MABRY   CLOUDY    76  70  82 S9G18     29.78S
6HR MIN TEMP:  76; 6HR MAX TEMP:  91;

*AUSTIN/EXEC   CLOUDY    75  72  88 S15       29.78S
*LAGO VISTA    CLOUDY    76  71  85 S14G21    29.78F
6HR MIN TEMP:  76; 6HR MAX TEMP:  89;

SAN MARCOS     CLOUDY    75  72  88 S17G24    29.79F
6HR MIN TEMP:  75; 6HR MAX TEMP:  88;

NEW BRAUNFELS  CLOUDY    77  72  84 S13       29.78R
6HR MIN TEMP:  77; 6HR MAX TEMP:  89;

RANDOLPH AFB   CLOUDY    77  76  97 S12G21    29.79S
6HR MIN TEMP:  76; 6HR MAX TEMP:  89;

PT SAN ANTONIO NOT AVBL
SAN ANTONIO    CLOUDY    77  71  82 S15       29.80R
6HR MIN TEMP:  76; 6HR MAX TEMP:  90;

STINSON FIELD  CLOUDY    79  72  79 S9        29.77S
6HR MIN TEMP:  78; 6HR MAX TEMP:  91;

*LA GRANGE     CLOUDY    78  73  84 S9        29.77R
6HR MIN TEMP:  75; 6HR MAX TEMP:  86;

*GIDDINGS      CLOUDY    75  69  82 S10G18    29.79S
6HR MIN TEMP:  73; 6HR MAX TEMP:  86;

*GONZALES      CLOUDY    78  74  88 S10G16    29.79R
6HR MIN TEMP:  76; 6HR MAX TEMP:  87;

$$

TXZ163>164-176>182-195>201-210>213-226-227-235-260700-
SOUTHEAST TEXAS

CITY           SKY/WX    TMP DP  RH WIND       PRES   REMARKS
COLLEGE STN    PTCLDY    72  66  81 S12       29.78R
6HR MIN TEMP:  72; 6HR MAX TEMP:  86;

*BRYAN         CLEAR     72  66  80 S12G21    29.79S
6HR MIN TEMP:  72; 6HR MAX TEMP:  85;

*CALDWELL      NOT AVBL
*CROCKETT      CLEAR     72  61  68 S8        29.81R
*BRENHAM       MOCLDY    74  68  82 S10       29.79S
6HR MIN TEMP:  73; 6HR MAX TEMP:  87;

HUNTSVILLE     CLEAR     73  63  70 S8        29.78S
6HR MIN TEMP:  73; 6HR MAX TEMP:  87;

CONROE         CLEAR     72  66  81 S8        29.80F
6HR MIN TEMP:  72; 6HR MAX TEMP:  86;

HOUSTON BUSH   PTCLDY    75  67  76 S13       29.80F
6HR MIN TEMP:  75; 6HR MAX TEMP:  85;

HOUSTON HOBBY  PTCLDY    74  68  81 S10       29.81F
6HR MIN TEMP:  72; 6HR MAX TEMP:  82;

*HOUSTON SW AP CLEAR     69  66  92 CALM      29.82F
6HR MIN TEMP:  68; 6HR MAX TEMP:  82;

PEARLAND       CLEAR     77  68  73 S9        29.83F
6HR MIN TEMP:  75; 6HR MAX TEMP:  83;

HOUSTON HOOKS  CLEAR     74  67  78 S8G17     29.80F
6HR MIN TEMP:  74; 6HR MAX TEMP:  85;

ELLINGTON FLD  PTCLDY    73  66  78 S8        29.84S
SUGAR LAND     CLEAR     73  69  87 S12       29.80F
6HR MIN TEMP:  73; 6HR MAX TEMP:  85;

*HOUSTON EXEC  CLEAR     72  68  88 S13       29.81S
*CLEVELAND MUN CLEAR     67  65  91 S3        29.82S
6HR MIN TEMP:  67; 6HR MAX TEMP:  83;

*WHARTON       CLOUDY    73  68  85 SE10      29.80F
*COLUMBUS      CLOUDY    74  69  87 S7        29.80S
6HR MIN TEMP:  73; 6HR MAX TEMP:  83;

*EAGLE LAKE    CLOUDY    75  72  91 S12       29.80R
6HR MIN TEMP:  73; 6HR MAX TEMP:  83;

$$

TXZ214>216-236>238-260700-
THE UPPER TEXAS COAST

CITY           SKY/WX    TMP DP  RH WIND       PRES   REMARKS
*ORANGE        CLEAR     75  67  76 S10G21    29.86R
6HR MIN TEMP:  73; 6HR MAX TEMP:  80;

PORT ARTHUR    CLEAR     73  66  78 S13       29.84R
6HR MIN TEMP:  70; 6HR MAX TEMP:  79;

GALVESTON      CLEAR     78  70  76 S23       29.85R
6HR MIN TEMP:  78; 6HR MAX TEMP:  81;

ANGLETON       CLEAR     75  70  84 S14       29.82F
6HR MIN TEMP:  75; 6HR MAX TEMP:  82;

*BAY CITY      MOCLDY    76  71  86 S10       29.81F
PALACIOS       CLOUDY    77  72  84 S18G30    29.80F
6HR MIN TEMP:  76; 6HR MAX TEMP:  80;

$$

TXZ229>234-239>247-260700-
TEXAS COASTAL BEND AND RIO GRANDE PLAINS

CITY           SKY/WX    TMP DP  RH WIND       PRES   REMARKS
VICTORIA       CLOUDY    79  72  79 S20G28    29.78F
6HR MIN TEMP:  76; 6HR MAX TEMP:  82; 6HR PCP: TRACE;

*BEEVILLE      MOCLDY    78  78 100 S13       29.77S
6HR MIN TEMP:  77; 6HR MAX TEMP:  85;

ROCKPORT       MOCLDY    79  73  82 S15G23    29.77F
6HR MIN TEMP:  79; 6HR MAX TEMP:  82;

*PORT ARANSAS  CLEAR     78  74  86 S16G23    29.79F
6HR MIN TEMP:  78; 6HR MAX TEMP:  80;

*PORT LAVACA   CLOUDY    77  74  92 S9G16     29.80F
*INGLESIDE     MOCLDY    80  75  84 S20G28    29.77F
CORPUS CHRISTI PTCLDY    78  75  90 SE17G26   29.76F
6HR MIN TEMP:  78; 6HR MAX TEMP:  83;

CORPUS NAS     CLOUDY    81  76  84 S24G30    29.77F
6HR MIN TEMP:  81; 6HR MAX TEMP:  83;

*ROBSTOWN      PTCLDY    79  74  85 S14G22    29.78R
6HR MIN TEMP:  79; 6HR MAX TEMP:  85;

ALICE          CLOUDY    78  73  84 S14       29.77R
6HR MIN TEMP:  77; 6HR MAX TEMP:  86;

KINGSVILLE NAS CLEAR     78  76  93 S16       29.76F
6HR MIN TEMP:  78; 6HR MAX TEMP:  85;

COTULLA        CLEAR     80  72  76 S10       29.74R
6HR MIN TEMP:  80; 6HR MAX TEMP:  99;

*FAITH RANCH   CLEAR     82  73  74 SE16      29.73R
LAREDO         CLEAR     80  73  79 SE16      29.73F
6HR MIN TEMP:  80; 6HR MAX TEMP:  98;

$$

TXZ248>255-260700-
DEEP SOUTH TEXAS

CITY           SKY/WX    TMP DP  RH WIND       PRES   REMARKS
BROWNSVILLE    MOCLDY    81  75  82 SE18      29.82S
6HR MIN TEMP:  80; 6HR MAX TEMP:  85;

PORT ISABEL    CLOUDY    80  75  84 S18G24    29.81S
6HR MIN TEMP:  80; 6HR MAX TEMP:  84;

*SOUTH PADRE   NOT AVBL
HARLINGEN      MOCLDY    79  76  90 S17       29.80S
6HR MIN TEMP:  78; 6HR MAX TEMP:  86;

*HEBBRONVILLE  CLOUDY    78  71  79 S10G18    29.78S
MCALLEN



USA.gov is the U.S. government's official web portal to all federal, state and local government web resources and services.